Other Public Products
Issued by NWS Grand Forks, ND

Home | Current Version | Previous Version | Text Only | Print | Product List | Glossary On
Versions: 1 2 3 4 5 6 7 8 9 10 11 12 13 14 15 16 17 18 19 20 21 22 23 24 25 26 27 28 29 30 31 32 33 34 35 36 37 38 39 40 41 42 43 44 45 46 47 48 49 50
652
FPUS83 KFGF 241831
OPUFGF
PRAIRIE TO PINES WEATHER ROUNDUP
NATIONAL WEATHER SERVICE EASTERN NORTH DAKOTA/GRAND FORKS ND
100 PM CDT SAT AUG 24 2019

 **SATELLITE DATA USED TO AUGMENT SKY COVER AT AUTOMATED STATIONS**
 *****  WEATHER ACROSS EASTERN NORTH DAKOTA  *****

CITY           SKY/WX    TMP DP  RH WIND       PRES   REMARKS
GRAND FORKS    FAIR      79  61  53 S23G33    29.97F
6HR MIN TEMP:  61; 6HR MAX TEMP:  80;

GRND FORKS AFB FAIR      78  64  62 S23G30    29.98F
GRND FORKS NWS   N/A     78  64  62 SE20      29.94F
BUXTON           N/A     78  65  63 S17G31      N/A
DEVILS LAKE    FAIR      77  63  61 S23G32    29.93F
6HR MIN TEMP:  64; 6HR MAX TEMP:  78;

FARGO          FAIR      77  62  59 SE21G33   30.02F
6HR MIN TEMP:  63; 6HR MAX TEMP:  77;

WAHPETON ARPT    N/A     77  59  53 SE21G28   30.05F
$$

 *****  WEATHER ACROSS CENTRAL AND WESTERN NORTH DAKOTA  *****

CITY           SKY/WX    TMP DP  RH WIND       PRES   REMARKS
JAMESTOWN      CLOUDY    77  67  71 S20G32    29.95F
6HR MIN TEMP:  62; 6HR MAX TEMP:  77;

BISMARCK       CLOUDY    72  65  78 S17G28    29.91S
6HR MIN TEMP:  68; 6HR MAX TEMP:  72;

MINOT          FAIR      77  66  68 S18G29    29.82F
6HR MIN TEMP:  69; 6HR MAX TEMP:  77;

MINOT AFB      FAIR      78  66  67 S22G29    29.80S
6HR MIN TEMP:  68; 6HR MAX TEMP:  78;

GARRISON         N/A     75  66  73 S22G32    29.82F
6HR MIN TEMP:  67; 6HR MAX TEMP:  75;

WILLISTON      FAIR      79  65  62 SW9       29.79F
6HR MIN TEMP:  69; 6HR MAX TEMP:  79; 6HR PCP: TRACE;

DICKINSON      FAIR      78  63  59 S16       29.83F
6HR MIN TEMP:  61; 6HR MAX TEMP:  78;

HETTINGER      PTSUNNY   75  61  61 S16       29.87F
6HR MIN TEMP:  62; 6HR MAX TEMP:  77;

$$

 *****  OTHER OBSERVATIONS NORTHEAST NORTH DAKOTA  *****

CITY           SKY/WX    TMP DP  RH WIND       PRES   REMARKS
WALHALLA       MOCLDY    81  64  57 S18G25    29.92S
LANGDON        NOT AVBL
CAVALIER       FAIR      81  63  54 S25G31    29.93S
GRAFTON        FAIR      79  63  57 S24       29.98S
CANDO          FAIR      77  66  69 S22G31    29.91F
FORT TOTTEN      N/A     77  64  65 S14       29.95S
ROLLA          FAIR      79  66  65 S21G33    29.88F
RUGBY          MOCLDY    77  66  69 S21G28    29.86F
 ***** THE ABOVE OBSERVATIONS ARE NON NWS ARE NOT QUALITY
        CONTROLLED AND MAY MIS-REPORT RAIN FOR SNOW...
$$

 *****  OTHER OBSERVATIONS SOUTHEAST NORTH DAKOTA *****

CITY           SKY/WX    TMP DP  RH WIND       PRES   REMARKS
COOPERSTOWN    FAIR      77  68  73 S21G29    29.97F
VALLEY CITY    CLOUDY    75  68  78 SE12G23   29.99F
OAKES          MOCLDY    81  68  65 S18G26    29.99F
GWINNER        MOCLDY    77  68  73 SE14G29   30.00F
SHEYENNE NWR     N/A     77  64  65 S16       29.95S
BUFFALO        NOT AVBL
WYNDMERE       NOT AVBL
 ***** THE ABOVE OBSERVATIONS ARE NON NWS ARE NOT QUALITY
       CONTROLLED AND MAY MIS-REPORT RAIN FOR SNOW...
$$

  *****  WEATHER ACROSS NORTHERN MINNESOTA  *****

CITY           SKY/WX    TMP DP  RH WIND       PRES   REMARKS
FLAG ISLAND      N/A     72  61  68 S15       30.05S
WARROAD          N/A     75  64  69 SE14G20   30.04F
ROSEAU         FAIR      79  64  61 S20G29    30.02F
HALLOCK        FAIR      82  63  51 S29       29.95F
THF RVR FALLS  FAIR      76  61  59 S24G30    30.05F
6HR MIN TEMP:  59; 6HR MAX TEMP:  76;

HALSTAD        NOT AVBL
FOSSTON        FAIR      75  55  50 S15G23    30.07F
BAUDETTE       FAIR      77  57  50 S17G33    30.09F
6HR MIN TEMP:  51; 6HR MAX TEMP:  77;

WASKISH        FAIR      75  59  57 S6G18     30.10F
CROOKSTON      FAIR      79  61  53 S26G33    30.01F
$$
  *****  WEATHER ACROSS CENTRAL AND WEST MINNESOTA  *****

CITY           SKY/WX    TMP DP  RH WIND       PRES   REMARKS
BEMIDJI        FAIR      76  58  54 S20G25    30.12F
6HR MIN TEMP:  56; 6HR MAX TEMP:  75;

PARK RAPIDS    FAIR      75  57  53 S20G29    30.14F
6HR MIN TEMP:  56; 6HR MAX TEMP:  75;

WADENA         FAIR      73  57  56 SE18      30.13F
DETROIT LAKES  FAIR      73  57  56 S18G25    30.10F
MOORHEAD       FAIR      75  61  60 S18G29    30.04F
FERGUS FALLS   FAIR      73  61  64 SE21G26   30.08F
ELBOW LAKE     FAIR      74  60  61 SE17G29   30.10F
6HR MIN TEMP:  58; 6HR MAX TEMP:  74;

MORRIS MN      FAIR      75  57  53 SE17G26   30.05F
STAPLES        PTSUNNY   72  54  53 SE17G23   30.15F
WHEATON        NOT AVBL
$$
  *****  WEATHER ELSEWHERE ACROSS MINNESOTA  *****

CITY           SKY/WX    TMP DP  RH WIND       PRES   REMARKS
DULUTH         FAIR      73  55  53 S8        30.24F
6HR MIN TEMP:  57; 6HR MAX TEMP:  73;

INTRNTL FALLS  FAIR      75  57  53 SW9G22    30.14F
6HR MIN TEMP:  54; 6HR MAX TEMP:  75;

ELY            CLOUDY    70  54  56 S7        30.22F
CLOQUET        NOT AVBL
BRAINERD       PTSUNNY   74  56  53 S14G23    30.19F
6HR MIN TEMP:  60; 6HR MAX TEMP:  76;

HIBBING        PTSUNNY   70  56  61 S8        30.21F
6HR MIN TEMP:  45; 6HR MAX TEMP:  72;

ALEXANDRIA     FAIR      78  56  46 S23G35    30.15F
6HR MIN TEMP:  60; 6HR MAX TEMP:  78;

SAINT CLOUD    PTSUNNY   74  55  51 SE15G22   30.19F
6HR MIN TEMP:  56; 6HR MAX TEMP:  74;

MINNEAPOLIS    FAIR      73  54  51 SE13      30.22F
6HR MIN TEMP:  63; 6HR MAX TEMP:  74;

$$

  *****  WEATHER ACROSS SOUTH DAKOTA  *****

CITY           SKY/WX    TMP DP  RH WIND       PRES   REMARKS
SIOUX FALLS    PTSUNNY   74  62  66 SE18G31   30.08F
6HR MIN TEMP:  59; 6HR MAX TEMP:  76;

BROOKINGS      PTSUNNY   75  63  64 SE22G29   30.09F
WATERTOWN      PTSUNNY   73  63  70 SE18G26   30.05F
6HR MIN TEMP:  59; 6HR MAX TEMP:  74;

HURON          PTSUNNY   76  64  66 SE17G28   30.01F
6HR MIN TEMP:  63; 6HR MAX TEMP:  77;

SISSETON         N/A     74  64  71 SE16G28   30.04F
ABERDEEN       PTSUNNY   77  65  66 S18G29    29.99F
6HR MIN TEMP:  64; 6HR MAX TEMP:  77;

MITCHELL       FAIR      79  64  60 SE22G32   30.02F
PIERRE         FAIR      77  66  68 SE23      29.90F
6HR MIN TEMP:  64; 6HR MAX TEMP:  77;

MOBRIDGE       CLOUDY    74  66  76 SE20G29   29.91F
RAPID CITY     FAIR      79  57  46 S17       29.91S
6HR MIN TEMP:  61; 6HR MAX TEMP:  79;

$$

  *****  SOME WEATHER IN NEARBY STATES *****

CITY           SKY/WX    TMP DP  RH WIND       PRES   REMARKS
GLASGOW MT     FAIR      80  60  50 W10       29.75F
6HR MIN TEMP:  60; 6HR MAX TEMP:  80;

GREAT FALLS MT PTSUNNY   74  46  36 SW15      29.86R
6HR MIN TEMP:  59; 6HR MAX TEMP:  76;

CHEYENNE WY    FAIR      76  38  25 NW14G29   30.07S
6HR MIN TEMP:  55; 6HR MAX TEMP:  76;

SCOTTSBLUFF NE FAIR      75  58  55 SW7       29.97S
6HR MIN TEMP:  57; 6HR MAX TEMP:  76;

OMAHA NE       CLOUDY    77  62  59 SE22G32   30.08F
6HR MIN TEMP:  65; 6HR MAX TEMP:  77;

DES MOINES IA  PTSUNNY   72  54  53 SE12G22   30.14F
6HR MIN TEMP:  61; 6HR MAX TEMP:  73;

DAVENPORT IA   FAIR      74  53  48 SE12      30.22F
6HR MIN TEMP:  56; 6HR MAX TEMP:  76;

CHICAGO IL     FAIR      74  49  41 E14G21    30.26F
6HR MIN TEMP:  62; 6HR MAX TEMP:  74;

EAU CLAIRE WI  PTSUNNY   68  50  52 SE9       30.26F
6HR MIN TEMP:  56; 6HR MAX TEMP:  71;

LA CROSSE WI   FAIR      76  51  41 SE10G20   30.24F
6HR MIN TEMP:  56; 6HR MAX TEMP:  76;

$$

  *****  SOME NATIONAL WEATHER *****

CITY           SKY/WX    TMP DP  RH WIND       PRES   REMA



USA.gov is the U.S. government's official web portal to all federal, state and local government web resources and services.